Temp
-12 -12 -12 -12 -12 -11 -11 -11 -11 -11 -11 -11 -11 -11 -11 -11 -11 -11 -11 -11 -11 -11 -11 -11 -11 -11 -12 -12 -12 -12 -12 -13 -13 -13 -13 -13 -13 -12 -13 -13 -13 -13 -13 -13 -14 -14 -16
-12 -12 -12 -12 -12 -12 -12 -12 -11 -11 -11 -11 -11 -11 -11 -11 -11 -11 -11 -11 -11 -11 -11 -11 -11 -12 -12 -12 -12 -13 -13 -13 -13 -13 -13 -13 -13 -13 -13 -13 -13 -14 -14 -14 -15 -15 -16
-12 -12 -12 -12 -12 -12 -12 -12 -12 -12 -12 -11 -11 -11 -11 -11 -11 -11 -12 -12 -12 -12 -12 -12 -12 -12 -12 -12 -13 -13 -13 -13 -13 -13 -13 -13 -13 -13 -13 -13 -13 -14 -15 -15 -15 -15 -16
-12 -12 -12 -12 -12 -12 -12 -12 -12 -12 -12 -12 -12 -12 -12 -12 -12 -12 -12 -12 -12 -12 -12 -12 -12 -12 -12 -13 -13 -13 -14 -14 -14 -14 -14 -14 -14 -14 -14 -14 -14 -14 -14 -15 -15 -15 -16
-12 -12 -12 -12 -12 -12 -12 -12 -12 -13 -13 -13 -13 -13 -12 -12 -12 -12 -12 -12 -13 -13 -13 -13 -13 -13 -13 -13 -13 -14 -14 -14 -14 -14 -14 -14 -14 -14 -14 -14 -14 -14 -14 -15 -15 -16 -16
-13 -13 -13 -13 -13 -13 -13 -13 -13 -13 -13 -14 -14 -13 -13 -13 -13 -13 -13 -13 -13 -13 -13 -13 -13 -13 -13 -14 -14 -14 -14 -14 -14 -15 -15 -15 -14 -14 -14 -14 -14 -14 -14 -15 -15 -16 -16
-13 -13 -13 -14 -14 -14 -14 -14 -14 -14 -14 -14 -14 -14 -14 -14 -14 -14 -14 -14 -14 -14 -14 -14 -14 -14 -14 -14 -14 -14 -14 -15 -15 -15 -15 -15 -15 -15 -15 -15 -15 -14 -15 -15 -16 -16 -16
-14 -14 -14 -14 -14 -14 -14 -14 -14 -14 -14 -14 -14 -15 -15 -15 -15 -14 -14 -14 -14 -14 -14 -14 -14 -14 -14 -14 -15 -15 -15 -15 -15 -15 -15 -15 -15 -15 -15 -15 -15 -15 -15 -15 -16 -16 -16
-15 -14 -14 -14 -14 -14 -14 -14 -14 -14 -14 -14 -14 -15 -15 -15 -16 -15 -15 -15 -15 -15 -15 -15 -15 -15 -15 -15 -15 -15 -15 -15 -16 -16 -16 -16 -16 -16 -16 -16 -16 -16 -16 -15 -16 -16 -17
-14 -14 -15 -14 -14 -14 -14 -14 -14 -14 -14 -14 -15 -15 -16 -16 -16 -16 -16 -16 -15 -15 -15 -15 -15 -15 -15 -15 -15 -16 -16 -16 -16 -16 -16 -16 -16 -16 -16 -16 -16 -16 -16 -15 -16 -16 -16
-14 -14 -14 -14 -14 -14 -14 -14 -14 -14 -14 -14 -14 -15 -16 -16 -16 -16 -17 -17 -16 -16 -16 -16 -16 -16 -16 -16 -16 -16 -16 -16 -16 -16 -16 -16 -17 -17 -17 -17 -16 -16 -16 -16 -16 -16 -17
-14 -14 -14 -14 -14 -14 -14 -14 -14 -14 -14 -14 -14 -15 -15 -16 -16 -17 -17 -17 -17 -17 -17 -17 -17 -16 -16 -16 -16 -16 -16 -17 -17 -17 -17 -17 -17 -17 -17 -17 -17 -16 -16 -16 -16 -16 -16
-14 -14 -14 -14 -14 -14 -14 -14 -14 -14 -14 -14 -14 -15 -15 -15 -16 -16 -16 -17 -17 -17 -17 -18 -17 -17 -17 -17 -17 -17 -17 -17 -17 -17 -17 -17 -17 -17 -17 -17 -17 -17 -16 -16 -15 -16 -17
-13 -13 -13 -13 -14 -14 -14 -14 -14 -14 -14 -15 -15 -15 -15 -15 -15 -16 -16 -16 -16 -17 -18 -18 -18 -18 -18 -18 -18 -18 -18 -17 -17 -17 -17 -17 -17 -18 -17 -17 -17 -17 -17 -17 -17 -16 -17
-13 -14 -14 -14 -14 -14 -14 -15 -15 -15 -15 -15 -15 -15 -15 -15 -15 -15 -16 -15 -16 -17 -17 -18 -18 -18 -18 -18 -18 -18 -18 -18 -18 -18 -18 -18 -18 -18 -18 -17 -17 -17 -17 -17 -16 -16 -16
-14 -15 -14 -14 -15 -15 -15 -15 -15 -15 -15 -15 -15 -15 -15 -16 -16 -16 -16 -16 -16 -17 -18 -18 -18 -18 -18 -18 -18 -18 -18 -18 -18 -18 -18 -18 -17 -18 -18 -17 -17 -17 -17 -17 -17 -17 -16
-15 -16 -15 -15 -15 -15 -15 -15 -15 -15 -15 -16 -16 -16 -16 -16 -16 -16 -16 -17 -17 -17 -18 -18 -18 -18 -18 -18 -18 -18 -18 -18 -18 -18 -18 -18 -17 -17 -18 -17 -17 -18 -17 -17 -17 -17 -17
-16 -16 -16 -16 -15 -15 -15 -15 -15 -16 -16 -15 -15 -16 -16 -17 -17 -17 -17 -17 -17 -17 -18 -18 -18 -17 -18 -18 -18 -17 -17 -18 -18 -18 -18 -18 -17 -17 -18 -17 -18 -18 -18 -18 -17 -17 -17
-17 -16 -16 -16 -16 -16 -16 -16 -16 -16 -16 -16 -16 -16 -16 -17 -17 -18 -18 -18 -18 -18 -18 -18 -18 -18 -18 -18 -18 -17 -18 -18 -18 -18 -18 -18 -17 -17 -17 -18 -18 -17 -18 -18 -17 -17 -17
-16 -16 -16 -16 -16 -16 -16 -16 -16 -16 -16 -16 -16 -16 -17 -17 -18 -18 -18 -19 -19 -18 -18 -18 -18 -18 -18 -18 -18 -18 -18 -18 -18 -18 -18 -18 -18 -18 -17 -18 -18 -18 -18 -18 -17 -17 -17
-17 -16 -16 -16 -16 -16 -17 -16 -16 -16 -17 -17 -18 -17 -18 -18 -19 -19 -19 -19 -19 -20 -20 -20 -19 -19 -19 -19 -19 -19 -19 -19 -19 -19 -19 -19 -18 -18 -18 -18 -18 -18 -18 -18 -17 -18 -17
-17 -17 -17 -16 -16 -16 -17 -17 -17 -17 -18 -18 -19 -19 -19 -20 -20 -20 -20 -20 -20 -20 -20 -20 -21 -21 -20 -20 -20 -20 -20 -20 -20 -20 -20 -20 -19 -19 -18 -19 -18 -18 -18 -18 -18 -18 -17
-17 -17 -17 -17 -17 -18 -17 -18 -18 -19 -19 -20 -20 -20 -20 -20 -20 -20 -20 -20 -20 -20 -20 -20 -21 -21 -21 -22 -21 -21 -21 -21 -21 -21 -21 -21 -21 -20 -19 -19 -19 -18 -18 -18 -18 -18 -18
-17 -18 -18 -18 -18 -18 -19 -19 -20 -20 -21 -21 -21 -21 -21 -21 -21 -21 -21 -21 -21 -20 -20 -20 -21 -20 -20 -21 -21 -21 -20 -20 -20 -20 -20 -20 -20 -21 -20 -20 -19 -18 -17 -18 -17 -18 -18
-18 -18 -19 -19 -19 -19 -20 -21 -21 -22 -22 -21 -22 -22 -21 -21 -21 -21 -21 -21 -21 -21 -21 -21 -20 -20 -20 -20 -20 -20 -21 -20 -20 -20 -20 -20 -20 -20 -20 -20 -19 -18 -19 -18 -18 -18 -19
-19 -19 -19 -20 -20 -21 -22 -22 -22 -22 -22 -21 -21 -21 -21 -21 -21 -21 -21 -21 -21 -21 -21 -21 -21 -21 -21 -21 -21 -20 -20 -20 -20 -20 -20 -21 -21 -21 -21 -20 -19 -18 -18 -18 -18 -18 -20
-19 -20 -21 -21 -22 -22 -22 -22 -22 -22 -22 -21 -21 -21 -21 -21 -21 -21 -21 -21 -21 -21 -21 -22 -22 -23 -22 -21 -21 -21 -21 -21 -20 -20 -20 -20 -20 -20 -20 -20 -19 -19 -18 -19 -19 -20 -20
-21 -21 -22 -22 -22 -22 -22 -22 -22 -22 -21 -21 -21 -21 -21 -21 -21 -21 -22 -22 -22 -22 -22 -22 -22 -22 -23 -23 -23 -22 -22 -21 -21 -20 -21 -21 -21 -21 -21 -21 -19 -19 -19 -20 -20 -20 -20
-22 -22 -22 -22 -22 -22 -22 -22 -22 -22 -22 -22 -22 -23 -23 -23 -22 -22 -22 -23 -23 -24 -24 -23 -23 -24 -24 -23 -23 -23 -22 -22 -22 -21 -21 -21 -21 -21 -22 -21 -21 -20 -20 -20 -20 -20 -21
Height
5828 5828 5827 5827 5827 5826 5825 5825 5824 5823 5823 5822 5821 5819 5818 5817 5815 5814 5813 5811 5810 5809 5807 5805 5804 5802 5800 5797 5795 5792 5790 5788 5785 5783 5779 5776 5772 5768 5763 5758 5753 5746 5740 5733 5727 5720 5713
5826 5826 5826 5825 5825 5825 5824 5823 5822 5821 5820 5820 5819 5817 5815 5814 5812 5811 5809 5808 5807 5806 5804 5803 5800 5799 5797 5795 5792 5789 5787 5785 5782 5779 5776 5772 5768 5764 5759 5754 5748 5742 5735 5728 5722 5716 5709
5824 5824 5824 5824 5823 5823 5822 5821 5820 5819 5817 5816 5815 5814 5812 5811 5809 5808 5806 5805 5803 5802 5801 5799 5797 5795 5793 5792 5789 5786 5784 5782 5779 5777 5773 5769 5765 5761 5756 5751 5745 5739 5734 5726 5720 5714 5706
5821 5821 5822 5821 5821 5820 5819 5818 5817 5816 5814 5813 5811 5810 5809 5807 5806 5804 5803 5801 5800 5798 5797 5796 5794 5792 5790 5788 5786 5784 5782 5779 5775 5773 5770 5766 5761 5757 5752 5748 5742 5735 5730 5724 5717 5710 5703
5819 5819 5819 5819 5818 5818 5817 5815 5814 5812 5811 5810 5808 5806 5805 5803 5802 5801 5799 5798 5796 5795 5793 5792 5791 5789 5787 5784 5783 5780 5778 5776 5773 5769 5766 5762 5758 5754 5750 5744 5739 5734 5727 5719 5714 5706 5698
5816 5816 5816 5815 5814 5813 5812 5811 5809 5808 5806 5805 5803 5802 5800 5799 5798 5796 5795 5794 5792 5791 5789 5788 5787 5787 5784 5781 5779 5777 5774 5772 5770 5766 5763 5759 5755 5750 5746 5740 5733 5728 5723 5717 5707 5705 5695
5812 5811 5810 5809 5808 5807 5806 5805 5803 5802 5800 5799 5798 5797 5795 5794 5793 5791 5791 5789 5790 5788 5785 5784 5783 5781 5780 5778 5775 5772 5770 5767 5765 5763 5759 5755 5751 5747 5742 5737 5730 5726 5719 5713 5706 5700 5695
5806 5806 5805 5804 5803 5802 5800 5798 5797 5794 5793 5791 5791 5790 5789 5788 5787 5786 5785 5784 5782 5782 5782 5779 5778 5776 5775 5773 5771 5768 5766 5764 5761 5758 5755 5752 5748 5743 5738 5734 5728 5722 5716 5710 5705 5697 5693
5801 5801 5800 5799 5797 5796 5794 5792 5790 5787 5785 5783 5782 5782 5782 5781 5780 5780 5778 5777 5776 5775 5775 5775 5773 5771 5770 5768 5766 5763 5762 5759 5757 5754 5751 5747 5744 5739 5735 5730 5727 5720 5714 5707 5702 5696 5690
5794 5794 5794 5794 5792 5791 5789 5788 5786 5783 5780 5777 5776 5775 5775 5774 5775 5773 5772 5771 5769 5767 5766 5769 5768 5766 5764 5762 5761 5759 5756 5755 5753 5750 5746 5743 5739 5735 5730 5726 5722 5718 5712 5706 5699 5693 5688
5789 5789 5789 5787 5786 5785 5784 5783 5781 5778 5776 5774 5771 5769 5768 5767 5767 5766 5766 5764 5763 5761 5758 5761 5760 5759 5758 5757 5755 5754 5751 5749 5747 5745 5742 5738 5735 5730 5726 5722 5718 5714 5708 5703 5697 5692 5686
5785 5784 5782 5781 5780 5779 5779 5777 5775 5772 5770 5768 5766 5765 5763 5761 5760 5759 5757 5756 5755 5756 5753 5754 5753 5752 5751 5749 5748 5746 5745 5743 5741 5739 5737 5733 5730 5726 5723 5718 5714 5710 5706 5701 5697 5691 5685
5778 5777 5776 5776 5775 5773 5772 5770 5769 5767 5765 5764 5760 5759 5757 5755 5753 5751 5749 5748 5747 5746 5749 5747 5745 5744 5743 5742 5741 5739 5737 5736 5734 5731 5731 5728 5726 5722 5718 5715 5711 5706 5702 5697 5694 5689 5684
5771 5771 5770 5768 5767 5766 5765 5764 5762 5760 5759 5758 5754 5751 5750 5748 5746 5744 5741 5740 5736 5740 5740 5738 5736 5734 5732 5733 5733 5731 5729 5729 5728 5724 5721 5719 5720 5717 5714 5710 5706 5702 5699 5694 5688 5686 5684
5767 5766 5763 5762 5760 5758 5757 5755 5753 5751 5750 5749 5746 5744 5742 5739 5737 5735 5733 5729 5731 5732 5731 5728 5726 5724 5724 5725 5724 5721 5720 5721 5720 5718 5716 5711 5711 5711 5708 5705 5703 5698 5695 5692 5688 5685 5682
5759 5758 5756 5753 5751 5750 5748 5747 5745 5742 5740 5739 5736 5734 5732 5729 5728 5725 5722 5721 5722 5721 5719 5717 5715 5715 5714 5716 5715 5714 5712 5713 5711 5710 5708 5704 5700 5704 5703 5701 5699 5695 5692 5688 5685 5680 5677
5748 5746 5745 5743 5740 5738 5737 5735 5732 5730 5727 5725 5724 5721 5721 5720 5717 5715 5713 5712 5711 5710 5709 5707 5706 5705 5706 5706 5704 5704 5703 5705 5702 5702 5699 5696 5694 5696 5697 5696 5693 5690 5687 5684 5681 5679 5674
5738 5735 5732 5729 5727 5723 5721 5720 5718 5716 5713 5711 5710 5708 5707 5705 5706 5703 5703 5700 5699 5698 5696 5695 5695 5695 5695 5694 5693 5694 5694 5693 5691 5690 5688 5688 5684 5684 5687 5689 5687 5684 5682 5679 5675 5674 5672
5725 5722 5720 5718 5714 5711 5710 5708 5707 5704 5702 5699 5698 5696 5693 5691 5690 5689 5688 5687 5686 5686 5685 5683 5682 5682 5682 5682 5681 5681 5682 5682 5681 5680 5678 5679 5676 5675 5676 5680 5680 5676 5675 5672 5670 5669 5668
5714 5711 5710 5707 5704 5702 5700 5698 5697 5693 5689 5688 5685 5683 5681 5678 5676 5674 5673 5673 5672 5670 5669 5669 5669 5668 5669 5669 5669 5668 5668 5668 5669 5670 5670 5667 5666 5667 5667 5668 5668 5668 5666 5665 5664 5663 5657
5707 5704 5701 5698 5697 5694 5690 5687 5684 5683 5679 5676 5673 5672 5670 5667 5663 5661 5660 5659 5658 5656 5654 5654 5653 5654 5655 5655 5655 5654 5656 5657 5655 5655 5655 5654 5655 5655 5656 5657 5656 5654 5654 5656 5656 5656 5649
5698 5694 5691 5689 5686 5683 5680 5675 5672 5669 5667 5665 5661 5659 5658 5655 5652 5650 5647 5647 5645 5644 5642 5640 5639 5639 5639 5639 5639 5640 5642 5643 5643 5642 5641 5641 5640 5642 5643 5644 5644 5639 5644 5650 5647 5647 5643
5688 5685 5681 5678 5674 5671 5668 5663 5659 5656 5653 5650 5648 5646 5645 5643 5640 5639 5636 5633 5632 5633 5631 5630 5629 5627 5626 5625 5626 5627 5628 5629 5630 5630 5630 5628 5629 5629 5627 5632 5631 5628 5639 5637 5639 5637 5636
5678 5674 5670 5666 5663 5658 5655 5651 5647 5643 5640 5637 5635 5633 5632 5630 5629 5627 5624 5622 5619 5618 5618 5617 5614 5614 5616 5615 5615 5615 5615 5617 5618 5621 5619 5619 5620 5618 5617 5618 5614 5620 5622 5625 5628 5629 5629
5667 5663 5658 5652 5650 5645 5642 5638 5634 5631 5628 5626 5623 5621 5619 5617 5617 5613 5610 5608 5606 5603 5603 5602 5601 5600 5600 5601 5601 5603 5603 5603 5605 5606 5607 5608 5607 5606 5604 5607 5606 5609 5611 5609 5610 5616 5618
5654 5650 5646 5641 5637 5632 5629 5625 5622 5618 5614 5613 5610 5607 5605 5604 5602 5599 5596 5593 5591 5589 5588 5585 5584 5583 5584 5584 5586 5586 5587 5588 5589 5590 5593 5595 5594 5594 5594 5594 5594 5596 5596 5597 5598 5600 5605
5641 5637 5632 5627 5624 5620 5616 5612 5608 5604 5599 5596 5593 5589 5587 5586 5586 5582 5579 5576 5573 5570 5570 5568 5569 5568 5566 5567 5566 5567 5568 5568 5571 5575 5578 5578 5577 5578 5580 5577 5583 5585 5586 5587 5589 5590 5589
5629 5624 5618 5614 5610 5607 5602 5598 5592 5587 5582 5577 5574 5569 5566 5564 5566 5563 5559 5556 5554 5551 5549 5548 5551 5548 5548 5550 5550 5549 5548 5550 5554 5557 5558 5560 5560 5562 5562 5563 5566 5571 5571 5572 5574 5574 5575
5615 5609 5604 5600 5595 5590 5585 5580 5575 5569 5563 5557 5554 5547 5543 5540 5544 5540 5536 5534 5533 5530 5528 5526 5527 5527 5526 5526 5524 5525 5529 5534 5536 5537 5540 5545 5543 5542 5543 5547 5549 5550 5554 5556 5558 5561 5563
Wind_Speed
11 11 10 11 13 13 13 13 14 14 15 15 14 15 15 15 15 15 16 17 17 16 16 17 17 17 17 17 17 16 18 18 19 20 21 22 24 25 26 27 27 29 32 35 36 37 33
13 13 12 13 13 15 15 15 15 16 17 17 18 17 16 16 17 17 17 18 19 18 17 16 16 17 16 17 16 16 16 17 19 21 23 23 24 25 27 27 28 28 32 35 34 36 34
15 15 15 15 15 16 17 17 17 18 18 18 19 20 18 18 18 19 19 20 20 20 18 16 16 16 17 16 16 15 16 17 20 22 24 25 25 26 25 26 27 27 28 31 32 30 32
16 17 18 17 17 20 21 21 20 20 20 21 20 21 21 21 21 21 21 21 21 20 19 18 16 16 16 16 15 16 17 19 22 24 24 25 25 25 27 27 27 28 28 27 30 30 31
19 19 19 20 20 22 24 25 24 24 25 26 24 23 23 23 23 23 22 22 22 20 20 19 17 16 15 15 15 17 19 20 21 23 26 27 27 28 29 30 29 28 28 28 27 29 32
21 21 21 21 22 24 26 27 28 30 29 27 27 26 25 25 25 25 24 23 24 22 21 20 18 18 18 16 16 18 20 21 22 25 27 28 29 31 31 32 33 31 30 27 32 28 31
21 21 20 24 24 27 29 30 32 32 32 32 31 30 28 26 26 25 25 24 24 24 22 21 21 20 19 20 20 21 22 23 24 26 28 30 31 31 32 32 34 32 31 29 29 31 28
27 26 26 25 30 29 31 33 35 35 35 35 34 33 32 26 26 27 26 27 27 27 23 22 21 22 22 22 22 22 23 24 26 27 29 30 32 32 33 33 33 32 33 31 28 28 26
27 26 28 30 33 33 34 34 33 33 34 34 32 31 34 33 30 29 28 30 30 30 28 24 23 23 25 27 24 24 25 25 26 29 30 32 33 34 34 34 31 32 30 31 30 26 25
26 29 31 32 30 29 27 27 28 28 29 27 28 30 34 30 30 32 32 30 31 32 33 28 27 27 26 24 25 26 27 28 28 28 30 33 33 34 35 35 33 31 29 30 28 27 26
18 19 21 23 24 25 27 27 27 27 26 27 26 27 29 30 33 34 36 35 33 34 36 31 26 25 26 27 29 29 31 30 30 30 30 33 34 34 35 34 34 31 32 28 28 26 24
22 23 24 25 26 27 27 27 27 29 28 28 28 29 31 31 33 35 37 37 34 35 36 32 30 29 30 31 31 32 32 33 33 31 30 33 34 34 33 33 32 31 29 25 21 23 26
24 25 25 27 27 26 27 28 29 30 30 29 31 30 31 33 35 34 36 37 38 37 36 33 29 31 33 31 31 33 34 33 32 33 32 32 32 33 33 29 29 30 28 24 22 24 29
27 27 28 29 30 31 32 32 32 33 33 33 34 34 33 32 33 34 35 37 39 33 30 33 38 35 35 36 34 35 31 29 28 31 37 38 32 32 28 28 30 30 28 28 31 29 26
32 34 34 34 35 36 38 39 38 39 39 38 37 39 39 36 35 36 38 40 35 35 38 39 38 43 40 33 34 35 36 34 32 37 38 37 35 31 28 28 29 31 30 28 29 26 24
39 40 42 43 43 44 44 43 45 45 45 46 45 44 44 44 43 41 42 40 38 36 36 36 39 38 35 33 36 38 35 34 30 31 34 37 39 31 30 30 31 30 30 31 30 31 29
44 44 49 51 51 52 52 53 55 53 51 49 51 50 49 48 49 48 47 45 43 41 41 41 39 39 37 37 37 38 37 37 38 36 38 40 40 36 31 31 31 31 30 31 32 30 31
56 59 58 56 60 62 58 56 51 48 48 46 47 48 49 50 52 52 50 48 47 45 44 44 43 42 40 39 39 39 38 37 39 39 41 40 43 41 35 32 32 33 31 32 32 32 30
53 50 51 53 48 45 46 44 45 45 45 46 46 47 46 48 52 54 54 53 51 50 49 49 46 44 44 44 45 43 43 42 42 42 43 42 43 42 40 35 32 34 33 34 33 32 28
41 40 40 42 42 43 43 44 47 48 48 48 47 47 46 45 45 47 49 52 53 54 54 54 54 53 52 50 48 49 48 50 49 47 47 46 46 44 43 39 37 37 36 36 34 31 35
35 37 39 41 44 46 47 47 50 51 50 51 47 46 46 43 40 40 41 41 44 48 50 52 55 53 53 54 53 54 51 52 56 54 51 48 49 47 46 43 41 41 41 36 34 32 38
39 41 44 47 49 51 53 53 52 53 53 50 48 45 43 42 40 38 40 38 37 37 40 42 44 49 53 50 53 53 52 51 52 53 53 48 49 46 48 45 43 46 42 34 35 33 35
41 43 45 48 50 53 54 55 55 52 50 46 45 44 41 42 41 41 40 39 38 40 41 41 40 39 40 40 40 40 41 39 35 33 31 33 35 36 43 38 41 46 36 37 35 33 32
43 46 48 50 51 52 54 55 53 48 46 44 44 45 44 43 42 42 43 44 45 45 43 44 46 45 44 43 44 43 42 41 40 36 37 38 39 43 46 42 45 42 41 37 33 30 27
50 52 52 51 53 53 52 51 48 44 42 42 43 44 45 47 49 50 49 48 48 50 50 49 50 50 50 49 49 49 49 48 46 45 44 44 46 47 48 47 47 42 43 42 40 36 28
51 53 55 54 53 51 50 49 49 50 51 50 51 52 53 53 52 53 54 56 56 56 55 55 56 54 55 55 53 54 53 52 51 50 49 47 49 50 50 51 49 46 46 46 45 41 31
55 56 54 51 51 51 52 54 55 57 59 60 59 60 60 58 58 59 60 61 62 64 64 62 58 56 59 59 58 58 59 59 58 55 54 55 54 54 52 54 50 47 48 48 46 45 43
54 53 52 52 53 54 57 59 62 64 66 68 68 70 70 70 67 67 67 68 68 67 68 68 66 65 63 60 60 62 64 64 63 61 59 58 57 56 55 56 57 53 54 53 48 47 45
52 51 53 55 59 62 65 67 69 71 73 76 75 76 75 76 73 74 73 70 69 68 69 70 70 67 68 68 69 67 65 64 63 65 63 62 61 60 60 59 58 57 56 55 53 50 45
Wind_Direction
268 276 283 291 295 296 297 297 298 300 302 302 301 303 306 307 307 307 308 311 312 314 315 316 319 322 324 325 325 327 328 334 339 340 342 343 343 342 343 344 345 343 342 345 350 354 351
264 273 282 289 295 298 301 303 303 302 301 302 300 300 302 304 307 306 305 306 306 308 309 312 315 318 320 321 323 325 330 335 339 342 343 342 341 342 343 347 345 347 342 341 348 349 354
265 274 280 288 296 299 300 302 304 304 303 299 298 298 299 301 304 306 307 307 306 305 305 306 309 314 317 321 321 325 330 333 337 341 341 341 340 341 344 347 348 346 342 340 341 342 351
269 274 279 286 294 300 303 303 304 305 306 303 299 297 297 299 301 302 304 305 304 304 303 303 307 310 314 319 321 323 326 332 338 343 344 343 342 344 344 346 349 345 340 337 339 343 344
271 276 282 289 297 301 303 302 302 305 309 307 303 301 299 297 297 299 300 301 301 301 301 301 302 304 308 312 316 319 323 328 335 340 344 344 345 346 345 343 342 344 344 336 340 345 345
275 279 283 288 292 291 293 294 298 299 303 304 300 300 300 298 296 296 297 298 297 297 298 297 298 299 303 306 310 313 316 321 328 335 339 340 340 342 341 343 344 346 343 343 338 349 345
279 280 282 286 283 287 293 291 291 295 294 295 296 293 293 294 294 293 295 294 294 295 293 293 296 296 297 301 304 307 311 317 323 329 332 335 337 338 339 341 340 344 341 343 337 342 347
269 273 280 279 287 286 287 288 289 288 286 286 287 287 284 288 290 291 290 292 294 292 291 292 291 293 293 297 297 298 303 311 317 323 327 329 332 333 335 339 341 339 341 338 338 334 347
274 270 273 275 286 288 291 289 288 288 287 284 278 277 282 283 279 284 288 288 288 288 293 288 289 290 292 293 290 292 298 306 312 318 322 324 327 328 331 334 339 339 335 338 337 334 343
279 275 277 283 287 288 289 293 294 295 294 287 281 280 280 283 280 280 283 285 286 284 286 288 289 291 290 289 287 290 295 301 305 311 315 319 323 325 327 330 332 335 338 340 339 339 338
280 281 280 281 282 286 289 290 293 295 297 295 288 282 284 279 279 284 283 280 284 282 289 295 292 291 289 288 289 289 292 294 302 307 311 317 321 322 323 323 327 331 338 342 343 341 337
276 276 276 279 284 289 292 296 296 294 295 298 296 295 290 287 282 283 286 290 276 282 289 289 288 289 288 290 290 290 288 291 297 301 307 313 315 318 320 320 324 329 337 343 342 351 349
271 275 281 287 287 287 290 292 296 298 302 302 302 299 296 296 290 286 286 284 283 282 281 281 284 283 281 282 291 290 288 293 295 297 305 306 308 313 316 314 319 327 334 341 351 4 358
272 273 275 276 279 282 284 286 287 290 292 293 294 297 297 294 293 292 290 285 282 290 288 289 287 272 273 277 287 278 288 291 292 297 297 301 304 308 312 316 320 326 332 339 343 351 0
275 276 275 275 275 277 281 284 284 287 286 285 286 287 288 287 286 286 286 285 291 287 284 282 278 282 287 278 280 287 286 276 284 286 292 293 297 302 304 311 318 323 328 330 333 343 354
280 282 283 280 281 283 284 284 285 283 285 284 283 283 283 282 281 278 279 284 285 282 278 280 278 278 284 278 277 286 292 294 291 290 293 294 292 298 299 304 312 314 318 322 329 333 341
282 286 287 287 287 288 289 290 293 287 285 281 279 279 278 280 280 280 282 281 280 277 275 274 275 277 281 281 281 284 287 289 286 288 288 289 291 294 296 301 307 307 310 314 317 320 327
285 285 286 283 285 284 282 284 288 288 287 285 284 280 279 277 276 275 277 278 278 278 276 274 273 273 272 272 275 280 284 286 290 288 287 288 289 291 293 297 300 300 303 306 307 312 318
288 292 285 290 294 293 290 288 291 292 292 291 290 290 286 282 278 275 274 274 274 274 275 274 274 272 270 271 275 277 280 283 285 286 286 287 287 289 291 293 293 294 298 298 299 303 310
294 293 295 296 298 298 297 296 296 294 292 291 290 289 287 286 285 280 278 276 275 274 273 274 274 275 274 274 276 277 276 276 281 286 285 281 280 282 285 289 292 291 289 289 292 299 295
295 295 295 297 298 298 298 299 298 296 294 293 292 288 286 285 285 285 283 281 278 277 277 275 274 276 275 275 275 275 278 280 280 279 276 273 273 274 276 282 286 285 284 286 292 294 290
293 296 298 297 296 296 296 296 295 295 293 291 289 287 285 284 284 282 282 283 283 282 281 279 280 280 272 269 270 272 275 275 276 277 270 265 268 271 273 277 279 274 277 292 287 291 289
296 296 296 296 296 296 295 296 297 295 292 290 289 287 283 283 282 282 280 281 283 281 279 279 277 276 278 278 277 274 270 272 280 282 278 276 278 276 273 279 277 271 288 284 289 287 286
295 296 296 296 298 300 298 296 295 296 294 292 289 289 287 286 287 286 284 282 282 283 283 281 279 277 275 275 277 278 278 277 273 274 271 271 270 276 278 280 276 279 282 286 282 285 287
298 298 299 299 298 299 298 296 295 293 292 293 294 293 289 285 285 285 285 286 287 286 284 281 280 281 281 278 276 275 273 274 273 273 272 272 274 277 278 279 278 279 289 291 292 295 302
297 298 299 299 298 296 294 293 292 292 290 287 286 287 287 286 286 285 283 284 284 283 282 282 282 281 279 279 277 275 272 273 272 271 271 270 270 271 276 279 279 279 286 291 290 294 304
298 297 297 296 295 293 292 292 291 290 289 288 288 288 287 285 284 285 284 283 283 283 282 283 282 280 280 279 278 277 276 274 273 272 272 273 274 275 274 274 275 276 277 282 287 288 292
297 296 296 296 296 295 294 293 291 291 291 291 290 290 289 287 285 285 284 283 282 283 282 281 280 279 279 275 274 274 273 273 274 275 275 275 275 274 273 273 273 275 277 279 280 282 284
298 299 299 297 295 293 292 291 291 291 291 290 289 287 287 286 285 284 283 282 282 281 280 279 279 279 279 279 277 275 273 273 273 271 273 273 275 274 272 272 271 271 270 272 273 274 277